Showing default

HULIANWANG DIGUI-136, 67244

Orbit data source: Space-Track

HULIANWANG DIGUI-136, 67244 is a payload satellite owned by Zhongguo Xingwang (CN) in LEO that was launched on Thu, 25 Dec 2025 UTC via a CHANG ZHENG 8A launch vehicle from the Wenchang Satellite Launch Center (WSC). Payload-class satellites include a variety of spacecraft equipped with specific instruments for various scientific and technological missions. These include communications satellites like Starlink; space stations such as the ISS; scientific satellites like the Hubble; Earth observation satellites from companies like Planet Labs, Umbra, and HawkEye 360; GPS; miniature CubeSats for education and research; and military/defense satellites.

Loading next visibility...
Identifier
67244, 2025-311J
Orbit
LEO
Country
Flag of CNCN / PRC
Related business
Manufacturer
CAST
Mission
Operational Civil Communications
Bus & Motor
XINGWANG C, Unknown motor
Mass
~700 kg wet, ~700 kg dry
Launch date (UTC)
2025-12-25 (6 months ago)
Launch vehicle
CHANG ZHENG 8A
Launch site
Wenchang Satellite Launch Center (WSC)
Object type
Payload
Rocket body
Debris
Shape & HBR
Box + 2 Pan, 14.5 m
Radar Cross Section
5.935 m², Large (>1 m²)

Expand to show TLE details & history
Last TLE update: 21 hours ago

TLE from 21 hours ago
0 HULIANWANG DIGUI-136
1 67244U 25311J   26163.16646837 -.00000148  00000-0 -52370-4 0  9990
2 67244  50.0087 133.7094 0000995 311.3351  48.7435 13.29322470 22673
Epoch: 2026-06-12T03:59Z
TLE epoch observation values (Epoch: 2026-06-12T03:59:42.867Z)
Latitude
-0.00004°
Longitude
173.28094°
Altitude
1,149.333 km
Speed
7.28 km/s
True Right ascension
08h 54m 50s
True Declination
0° 00' 00"
Sunlit
Object was in daylight at epoch
Visualization orbit readout
Latitude
Unknown
Longitude
Unknown
Altitude
Unknown
Speed
Unknown
Apparent Right ascension
Unknown
Apparent Declination
Unknown
Sunlit
N/A
Visualization observer readout
Local Sidereal Time
11:28:10
Azimuth
Unknown
Elevation
Unknown
Doppler factor
Unknown
Orbital elements
Apogee altitude
1,150.773 km
Perigee altitude
1,149.275 km
Semi-major axis
7,528.161 km
Eccentricity
0.0001
Inclination
50.0087°
RAAN
133.7094°
Arg. of periapsis
311.3351°
True anomaly
48.75207°
Mean anomaly
48.7435°
Eccentric anomaly
48.74779°
Mean motion
3.32284 °/min
Orbital period
108.34 mins
BSTAR
-0.00005237
Loading maneuver chart data...
Computing Atmospheric mass density...
Loading historical data...
Loading historical data...
Loading historical data...
Loading historical data...
Loading historical data...
Loading historical data...
Loading historical data...

Documentation

Showing up to 5 results
|